Sparta, TN

8:57 AM CDT on October 19, 2017 (GMT -0500)
Upper Cumberland Regional

Weather History for KSRB - February, 2013

Change the Weather History Date:

Monday, February 18, 2013

  Actual Average (KCSV) Record (KCSV)
Temperature  
Mean Temperature 46 °F -  
Max Temperature 59 °F 48 °F 68 °F (1986)
Min Temperature 32 °F 31 °F -4 °F (1958)
Degree Days  
Heating Degree Days 20    
Moisture  
Dew Point 29 °F    
Average Humidity 50    
Maximum Humidity 81    
Minimum Humidity 39    
Precipitation  
Precipitation 0.00 in - - ()
Sea Level Pressure  
Sea Level Pressure 30.08 in    
Wind  
Wind Speed 11 mph (South)    
Max Wind Speed 22 mph    
Max Gust Speed 32 mph    
Visibility 10 miles    
Events      
Averages and records for this station are not official NWS values.
T = Trace of Precipitation, MM = Missing Value Source: NWS Daily Summary

Daily Weather History Graph

Daily Weather History Graph

Search for Another Location

Airport or City:

Trip Planner

Search our weather history database for the weather conditions in past years. The results will help you decide how hot, cold, wet, or windy it might be!

Date:

Astronomy

Feb. 18, 2013 Rise Set
Actual Time 6:25 AM CST 5:26 PM CST
Civil Twilight 5:59 AM CST 5:52 PM CST
Nautical Twilight 5:29 AM CST 6:22 PM CST
Astronomical Twilight 4:59 AM CST 6:52 PM CST
Moon 11:17 AM CST (2/18) 12:59 AM CST (2/18)
Length of Visible Light 11h 53m
Length of Day
11h 01m
First Quarter, 58% of the Moon is Illuminated
Feb 18
First Quarter
Feb 25
Full
Mar 4
Last Quarter
Mar 11
New
Mar 19
First Quarter

Hourly Weather History & Observations

Time (CST) Temp. Windchill Dew Point Humidity Pressure Visibility Wind Dir Wind Speed Gust Speed Precip Events Conditions
12:15 AM 32.0 °F 25.6 °F 19.4 °F 60% 30.20 in 10.0 mi SSE 6.9 mph - N/A   Clear
12:35 AM 32.0 °F 26.4 °F 19.4 °F 60% 30.20 in 10.0 mi South 5.8 mph - N/A   Clear
12:55 AM 33.8 °F 27.7 °F 19.4 °F 56% 30.19 in 10.0 mi South 6.9 mph - N/A   Clear
1:15 AM 33.8 °F 28.6 °F 19.4 °F 56% 30.19 in 10.0 mi South 5.8 mph - N/A   Clear
1:35 AM 33.8 °F 27.7 °F 19.4 °F 56% 30.19 in 10.0 mi SSE 6.9 mph - N/A   Clear
1:55 AM 33.8 °F 28.6 °F 19.4 °F 56% 30.18 in 10.0 mi South 5.8 mph - N/A   Clear
2:15 AM 33.8 °F 27.7 °F 19.4 °F 56% 30.18 in 10.0 mi South 6.9 mph - N/A   Clear
2:35 AM 33.8 °F 27.7 °F 19.4 °F 56% 30.18 in 10.0 mi SSE 6.9 mph - N/A   Clear
3:15 AM 33.8 °F 27.0 °F 19.4 °F 56% 30.18 in 10.0 mi South 8.1 mph - N/A   Clear
3:35 AM 33.8 °F 28.6 °F 19.4 °F 56% 30.18 in 10.0 mi South 5.8 mph - N/A   Clear
3:55 AM 35.6 °F 29.9 °F 19.4 °F 52% 30.18 in 10.0 mi SSE 6.9 mph - N/A   Clear
4:15 AM 35.6 °F 28.6 °F 19.4 °F 52% 30.18 in 10.0 mi South 9.2 mph - N/A   Clear
4:35 AM 35.6 °F 29.2 °F 19.4 °F 52% 30.19 in 10.0 mi SSE 8.1 mph - N/A   Clear
4:55 AM 35.6 °F 29.9 °F 19.4 °F 52% 30.19 in 10.0 mi South 6.9 mph - N/A   Clear
5:15 AM 35.6 °F 29.9 °F 19.4 °F 52% 30.19 in 10.0 mi SSE 6.9 mph - N/A   Clear
5:35 AM 35.6 °F 28.6 °F 19.4 °F 52% 30.19 in 10.0 mi South 9.2 mph - N/A   Clear
6:15 AM 35.6 °F 29.2 °F 19.4 °F 52% 30.19 in 10.0 mi South 8.1 mph - N/A   Clear
6:35 AM 35.6 °F 28.6 °F 19.4 °F 52% 30.20 in 10.0 mi South 9.2 mph - N/A   Clear
6:55 AM 37.4 °F 30.3 °F 21.2 °F 52% 30.20 in 10.0 mi South 10.4 mph - N/A   Clear
7:15 AM 37.4 °F 28.9 °F 21.2 °F 52% 30.20 in 10.0 mi South 13.8 mph - N/A   Clear
7:35 AM 39.2 °F 32.5 °F 21.2 °F 49% 30.21 in 10.0 mi SSE 10.4 mph - N/A   Clear
7:55 AM 39.2 °F 32.5 °F 23.0 °F 52% 30.21 in 10.0 mi South 10.4 mph - N/A   Clear
8:15 AM 41.0 °F 34.3 °F 24.8 °F 53% 30.22 in 10.0 mi South 11.5 mph - N/A   Clear
8:35 AM 42.8 °F 36.6 °F 24.8 °F 49% 30.21 in 10.0 mi South 11.5 mph - N/A   Unknown
8:55 AM 42.8 °F 38.6 °F 26.6 °F 53% 30.21 in 10.0 mi South 6.9 mph - N/A   Partly Cloudy
9:15 AM 46.4 °F 42.9 °F 28.4 °F 50% 30.21 in 10.0 mi South 6.9 mph - N/A   Scattered Clouds
9:35 AM 48.2 °F - 30.2 °F 50% 30.20 in 10.0 mi SSW 11.5 mph - N/A   Partly Cloudy
9:55 AM 48.2 °F - 32.0 °F 54% 30.20 in 10.0 mi SSW 13.8 mph - N/A   Partly Cloudy
10:15 AM 51.8 °F - 33.8 °F 50% 30.19 in 10.0 mi SSW 12.7 mph - N/A   Partly Cloudy
10:35 AM 53.6 °F - 35.6 °F 51% 30.19 in 10.0 mi SSW 19.6 mph - N/A   Clear
10:55 AM 53.6 °F - 35.6 °F 51% 30.18 in 10.0 mi SW 18.4 mph - N/A   Clear
11:15 AM 53.6 °F - 35.6 °F 51% 30.17 in 10.0 mi SW 16.1 mph - N/A   Clear
11:35 AM 55.4 °F - 35.6 °F 47% 30.15 in 10.0 mi SSW 9.2 mph - N/A   Clear
11:55 AM 55.4 °F - 35.6 °F 47% 30.14 in 10.0 mi South 15.0 mph - N/A   Clear
12:15 PM 55.4 °F - 35.6 °F 47% 30.11 in 10.0 mi South 11.5 mph - N/A   Clear
12:35 PM 55.4 °F - 35.6 °F 47% 30.10 in 10.0 mi SSW 15.0 mph - N/A   Clear
12:55 PM 57.2 °F - 35.6 °F 44% 30.09 in 10.0 mi South 16.1 mph - N/A   Clear
1:15 PM 57.2 °F - 35.6 °F 44% 30.09 in 10.0 mi South 15.0 mph - N/A   Clear
1:35 PM 59.0 °F - 35.6 °F 42% 30.08 in 10.0 mi SSW 13.8 mph - N/A   Clear
1:55 PM 57.2 °F - 33.8 °F 41% 30.07 in 10.0 mi SSW 20.7 mph - N/A   Clear
2:15 PM 57.2 °F - 33.8 °F 41% 30.06 in 10.0 mi SSW 19.6 mph - N/A   Clear
2:35 PM 59.0 °F - 33.8 °F 39% 30.05 in 10.0 mi SSW 16.1 mph - N/A   Clear
2:55 PM 57.2 °F - 35.6 °F 44% 30.03 in 10.0 mi South 13.8 mph - N/A   Clear
3:15 PM 57.2 °F - 33.8 °F 41% 30.03 in 10.0 mi SSW 16.1 mph - N/A   Clear
3:35 PM 57.2 °F - 33.8 °F 41% 30.02 in 10.0 mi South 15.0 mph - N/A   Clear
3:55 PM 57.2 °F - 33.8 °F 41% 30.01 in 10.0 mi South 16.1 mph - N/A   Clear
4:15 PM 55.4 °F - 33.8 °F 44% 30.00 in 10.0 mi South 16.1 mph - N/A   Clear
4:35 PM 55.4 °F - 33.8 °F 44% 29.99 in 10.0 mi South 17.3 mph - N/A   Clear
4:55 PM 55.4 °F - 33.8 °F 44% 29.99 in 10.0 mi South 16.1 mph - N/A   Scattered Clouds
5:15 PM 53.6 °F - 33.8 °F 47% 29.99 in 10.0 mi South 17.3 mph - N/A   Mostly Cloudy
5:35 PM 53.6 °F - 33.8 °F 47% 29.99 in 10.0 mi South 12.7 mph - N/A   Mostly Cloudy
5:55 PM 53.6 °F - 33.8 °F 47% 29.98 in 10.0 mi South 12.7 mph - N/A   Mostly Cloudy
6:15 PM 53.6 °F - 33.8 °F 47% 29.98 in 10.0 mi South 12.7 mph - N/A   Scattered Clouds
6:35 PM 53.6 °F - 32.0 °F 44% 29.96 in 10.0 mi South 11.5 mph - N/A   Clear
6:55 PM 53.6 °F - 32.0 °F 44% 29.95 in 10.0 mi South 16.1 mph - N/A   Scattered Clouds
7:15 PM 53.6 °F - 30.2 °F 41% 29.93 in 10.0 mi South 15.0 mph - N/A   Mostly Cloudy
7:35 PM 53.6 °F - 30.2 °F 41% 29.93 in 10.0 mi South 15.0 mph - N/A   Mostly Cloudy
7:55 PM 53.6 °F - 30.2 °F 41% 29.93 in 10.0 mi South 15.0 mph - N/A   Mostly Cloudy
8:15 PM 53.6 °F - 30.2 °F 41% 29.92 in 10.0 mi South 17.3 mph - N/A   Mostly Cloudy
8:35 PM 51.8 °F - 30.2 °F 44% 29.92 in 10.0 mi South 20.7 mph - N/A   Mostly Cloudy
8:55 PM 51.8 °F - 28.4 °F 41% 29.90 in 10.0 mi South 20.7 mph 32.2 mph N/A   Scattered Clouds
9:15 PM 51.8 °F - 28.4 °F 41% 29.90 in 10.0 mi SSW 19.6 mph - N/A   Clear
9:35 PM 51.8 °F - 30.2 °F 44% 29.91 in 10.0 mi South 12.7 mph - N/A   Mostly Cloudy
9:55 PM 51.8 °F - 30.2 °F 44% 29.91 in 10.0 mi South 19.6 mph 31.1 mph N/A   Overcast
10:15 PM 51.8 °F - 30.2 °F 44% 29.91 in 10.0 mi South 21.9 mph - N/A   Overcast
10:35 PM 50.0 °F - 32.0 °F 50% 29.93 in 9.0 mi SSW 13.8 mph - N/A   Overcast
10:55 PM 46.4 °F 40.7 °F 35.6 °F 66% 29.92 in 5.0 mi South 12.7 mph - N/A   Mostly Cloudy
11:15 PM 44.6 °F 38.4 °F 37.4 °F 76% 29.92 in 4.0 mi South 12.7 mph - N/A   Overcast
11:35 PM 42.8 °F 37.5 °F 37.4 °F 81% 29.91 in 8.0 mi South 9.2 mph - N/A   Mostly Cloudy
11:55 PM 44.6 °F 39.2 °F 37.4 °F 76% 29.92 in 9.0 mi SSW 10.4 mph - N/A   Overcast